Munising, MI

8:00 PM EDT on May 27, 2017 (GMT -0400)
Munising

Weather History for KP53 - October, 2013

Change the Weather History Date:

Tuesday, October 15, 2013

  Actual Average (KISQ) Record (KISQ)
Temperature  
Mean Temperature 50 °F -  
Max Temperature 54 °F 51 °F 65 °F (1963)
Min Temperature 46 °F 37 °F 24 °F (1998)
Degree Days  
Heating Degree Days 15    
Moisture  
Dew Point 44 °F    
Average Humidity 79    
Maximum Humidity 90    
Minimum Humidity 68    
Precipitation  
Precipitation 0.07 in - - ()
Sea Level Pressure  
Sea Level Pressure 29.97 in    
Wind  
Wind Speed 5 mph (SE)    
Max Wind Speed 10 mph    
Max Gust Speed 17 mph    
Averages and records for this station are not official NWS values.
T = Trace of Precipitation, MM = Missing Value Source: NWS Daily Summary

Daily Weather History Graph

Daily Weather History Graph

Search for Another Location

Airport or City:

Trip Planner

Search our weather history database for the weather conditions in past years. The results will help you decide how hot, cold, wet, or windy it might be!

Date:

Astronomy

Oct. 15, 2013 Rise Set
Actual Time 8:04 AM EDT 6:59 PM EDT
Civil Twilight 7:33 AM EDT 7:29 PM EDT
Nautical Twilight 6:58 AM EDT 8:04 PM EDT
Astronomical Twilight 6:24 AM EDT 8:39 PM EDT
Moon 5:13 PM EDT (10/15) 4:15 AM EDT (10/15)
Length of Visible Light 11h 55m
Length of Day
10h 55m
Waxing Gibbous, 87% of the Moon is Illuminated
Oct 15
Waxing Gibbous
Oct 18
Full
Oct 26
Last Quarter
Nov 3
New
Nov 10
First Quarter

Hourly Weather History & Observations

Time (EDT) Temp. Windchill Dew Point Humidity Pressure Visibility Wind Dir Wind Speed Gust Speed Precip Events Conditions
12:56 AM 46.0 °F 44.8 °F 37.9 °F 73% 30.28 in - Variable 3.5 mph - N/A   Unknown
1:56 AM 46.9 °F - 37.9 °F 71% 30.24 in - SSE 6.9 mph - N/A   Unknown
2:56 AM 46.9 °F - 37.0 °F 68% 30.22 in - SE 6.9 mph - N/A   Unknown
3:56 AM 46.9 °F - 37.0 °F 68% 30.21 in - Calm Calm - N/A   Unknown
4:56 AM 46.9 °F - 37.9 °F 71% 30.18 in - SE 6.9 mph - N/A   Unknown
5:56 AM 46.0 °F 43.1 °F 39.0 °F 76% 30.16 in - Variable 5.8 mph - N/A   Unknown
6:56 AM 46.0 °F 43.9 °F 39.0 °F 76% 30.14 in - Variable 4.6 mph - N/A   Unknown
7:56 AM 46.0 °F 44.8 °F 39.0 °F 76% 30.12 in - Variable 3.5 mph - N/A   Unknown
8:56 AM 46.9 °F - 39.0 °F 74% 30.11 in - South 4.6 mph - N/A   Unknown
9:56 AM 48.9 °F - 41.0 °F 74% 30.06 in - SE 9.2 mph - N/A   Unknown
10:56 AM 51.1 °F - 44.1 °F 77% 30.02 in - SE 10.4 mph 17.3 mph N/A   Unknown
11:56 AM 52.0 °F - 45.0 °F 77% 29.97 in - East 6.9 mph - N/A   Unknown
12:56 PM 53.1 °F - 46.9 °F 80% 29.98 in - SSE 5.8 mph - N/A   Unknown
1:56 PM 53.1 °F - 46.9 °F 80% 29.96 in - South 4.6 mph - N/A   Unknown
2:56 PM 52.0 °F - 48.0 °F 86% 29.89 in - ESE 5.8 mph - 0.05 in   Unknown
3:56 PM 53.1 °F - 48.0 °F 83% 29.84 in - Variable 6.9 mph - 0.01 in   Unknown
4:56 PM 53.1 °F - 48.9 °F 86% 29.82 in - SE 6.9 mph - 0.01 in   Unknown
5:56 PM 53.1 °F - 48.9 °F 86% 29.80 in - SSE 3.5 mph - N/A   Unknown
6:56 PM 53.1 °F - 48.0 °F 83% 29.77 in - Variable 4.6 mph - N/A   Unknown
7:56 PM 53.1 °F - 48.0 °F 83% 29.75 in - Variable 4.6 mph - N/A   Unknown
8:56 PM 53.1 °F - 48.9 °F 86% 29.74 in - Calm Calm - N/A   Unknown
9:56 PM 53.1 °F - 50.0 °F 89% 29.71 in - South 3.5 mph - N/A   Unknown
10:56 PM 54.0 °F - 51.1 °F 90% 29.69 in - Calm Calm - N/A   Unknown
11:56 PM 54.0 °F - 51.1 °F 90% 29.68 in - NNW 3.5 mph - N/A   Unknown